Location: *
(46.1833°N, 22.7667°E)
Time: 12:54:16
(UTC+00:00)

Cosmos 1842 - Pass Details

Date: 17 September 2019
Orbit: 522 x 537 km, 82.5° (Epoch: 16 October)

Event Time Altitude Azimuth Distance (km) Brightness Sun altitude
Rises 17:41:22 0° 346° (NNW) 2,704 7.3 -11.7°
Reaches altitude 10° 17:43:34 10° 341° (NNW) 1,807 6.4 -12.1°
Maximum altitude 17:47:25 51° 266° (W) 681 4.2 -12.7°
Drops below altitude 10° 17:51:14 10° 190° (S) 1,787 5.8 -13.4°
Sets 17:53:24 0° 185° (S) 2,670 6.7 -13.7°
